Location: Hungerford
(51.4167°N, 1.5167°W)
Time: 12:21:55
(UTC+00:00)

Cosmos 1707 - Visible Passes

Search period start: 16 January 2021 00:00
Search period end: 26 January 2021 00:00
Orbit: 514 x 531 km, 82.5° (Epoch: 15 January)

Date Brightness Start Highest point End Pass type
(mag) Time Alt. Az. Time Alt. Az. Time Alt. Az.
16 Jan 3.1 17:08:01 10° SSW 17:11:52 69° WNW 17:15:42 10° N visible
18 Jan 5.8 18:21:38 10° WNW 18:22:32 11° WNW 18:23:27 10° NW visible
19 Jan 5.7 18:08:04 10° W 18:09:33 12° WNW 18:11:02 10° NW visible
20 Jan 5.6 17:54:41 10° W 17:56:34 13° WNW 17:58:27 10° NNW visible
21 Jan 5.5 17:41:24 10° W 17:43:35 15° WNW 17:45:46 10° NNW visible
22 Jan 5.5 17:28:10 10° WSW 17:30:36 16° WNW 17:33:04 10° NNW visible
23 Jan 5.4 17:14:58 10° WSW 17:17:38 18° WNW 17:20:18 10° NNW visible
